Погода Баево

Погода Баево : погода сейчас, прогноз погоды и архив. Всё, что Вы хотите узнать о погоде Баево!

Поиск расширенной информации на нашем сайте:

Полезная информация: Купить серебряные украшения в 1030 тут

Другие новости

Новости СМИ2

Главная страница сайта

Новости сайта

03.07.2017

Напоминаем, что на нашем специализированном сайте Метеоцентр.Азия вы можете получить высокодетализированные автоматические прогнозы погоды по пунктам России, СНГ и мира в авиационном формате (включающие направление и скорость ветра, видимость, явления погоды, количество и форму облачности, нижнюю и верхнюю границу облачности).

Рекомендуем: Расшифровка маркировки сварочных электродов arkgou.ru.

Погода Баево - сегодня

Время (UTC), дата Ветер
(°,м/с) 
Видим.   Явления Облачность Т
(°С)
Тd
(°С)
f(%) Тe
(°С)
Pmin
(гПа)
dP
(гПа)
Po
(мм)
O2
(г/м3)
Тmin Tmax R s Состояние
почвы
18 18.01.18 020 (С) 4000 м  слаб. ливневой снег  10/10 600 м кучево-дожд. 
[Cb cap]
-17.4 -19.8 82 -18  1036.5  0.4  765  331           
21 18.01.18 350 (С) 4000 м  слаб. ливневой снег  10/10 600 м кучево-дожд. 
[Cb cap]
-19.7 -22.3 80 -20  1036.5  -0.1  765  334           
00 19.01.18 030 (СВ) 4000 м  слаб. ливневой снег  10/10 600 м кучево-дожд. 
[Cb cap]
-20.5 -23.1 80 -23  1036.5  -0.1  765  335  -20.7    0.2  12  равномерный
сухой снег
100% 
03 19.01.18 040 (СВ) 10 км  {ливн. осадки}  4/3 1000 м верхняя 
[Sc|Ci]
-25.2 -28.2 76 -28  1037.3  0.4  765  341  -25.2         
06 19.01.18 030 (СВ) 20000 м  {ливн. осадки}  3/0 верхняя 
[Ci sp]
-19.3 -22.3 77 -20  1037.5  0.7  766  334           
09 19.01.18 040 (СВ) 20000 м    3/0 средняя 
[Ac As]
-15.5 -19.2 73 -18  1037.8  0.5  766  329           
12 19.01.18 050 (СВ) 20000 м    3/0 средняя 
[Ac lent]
-18.4 -20.6 83 -21  1038.9  0.9  767  333    -15.2  0.0     
15 19.01.18 040 (СВ) 4000 м  слаб. ливневой снег  10/10 600 м кучево-дожд. 
[Cb cap]
-16 -18.2 83 -16  1039.6  0.8  767  330           
18 19.01.18 040 (СВ) 4000 м  слаб. ливневой снег  10/10 600 м кучево-дожд. 
[Cb cap]
-14.1 -16.8 80 -18  1039.9  0.5  768  328           
21 19.01.18 030 (СВ) 10 км  {ливн. осадки}  ясно 
-16.7 -19.3 80 -23  1040.9  0.7  768  331           
00 20.01.18 040 (СВ) 10 км  {ливн. осадки}  ясно 
-25 -28.3 74 -30  1042.7  1.3  769  343  -25.6    0.0  12  равномерный
сухой снег
100% 
03 20.01.18 040 (СВ) 10 км    ясно 
-28.1 -32 69 -35  1043.6  0.7  770  348  -28.5         
06 20.01.18 040 (СВ) 20000 м    ясно 
-23.8 -30.3 55 -30  1043.9  0.5  770  342           
09 20.01.18 050 (СВ) 20000 м    ясно 
-22.6 -30.5 49 -29  1044  0.2  770  340           
12 20.01.18 030 (СВ) 20000 м    ясно 
-27.9 -33.5 59 -31  1045.6  1.3  771  348    -22.5       
15 20.01.18 030 (СВ) 20000 м    ясно 
-30 -35.7 58 -38  1045.9  0.1  771  351           
18 20.01.18 050 (СВ) 20000 м    ясно 
-32.2 -37.4 60 -38  1046.5  0.4  771  354           
21 20.01.18 040 (СВ) 20000 м    ясно 
-33.8 -38.8 61 -41  1047  0.4  772  357           
00 21.01.18 050 (СВ) 20000 м    ясно 
-35.4 -40.5 60 -42  1047.4  0.2  772  359  -35.5      12  равномерный
сухой снег
100% 
03 21.01.18 030 (СВ) 20000 м    ясно 
-36.8 -41.9 59 -45  1048.3  0.8  773  362  -36.9         
06 21.01.18 030 (СВ) 20000 м    ясно 
-34.3 -40.8 52 -42  1048.3  0.2  773  358           
09 21.01.18 030 (СВ) 20000 м    ясно 
-32.8 -39.6 51 -40  1048.6  0.4  773  356           
12 21.01.18 040 (СВ) 20000 м    ясно 
-35.2 -41 55 -43  1049.3  0.5  773  360    -32.8       
15 21.01.18 040 (СВ) 20000 м    ясно 
-37.6 -42.7 59 -44  1050.2  0.7  774  364           
18 21.01.18 040 (СВ) 20000 м    ясно 
-37.1 -42.1 60 -44  1049.7  -0.5  773  363           
Время (UTC), дата Ветер
(°,м/с) 
Видим.   Явления Облачность Т
(°С)
Тd
(°С)
f(%) Тe
(°С)
Pmin
(гПа)
dP
(гПа)
Po
(мм)
O2
(г/м3)
Тmin Tmax R s Состояние
почвы

Для получения пояснительной информации подведите курсор к названию столбца.

ПОГОДА Баево - архив

Всё, что Вы хотите узнать о погоде Баево - удобно и подробно!

Выберите нужную дату (начиная с 1 января 2015* года) и нажмите кнопку "Найти".
Будут отображены архивные сводки погоды по пункту Баево, начиная с указанной даты.


Отображать данные в формате CSV (для использования в таблицах Excel)


Внимание! Наш архив погоды предназначен исключительно для личного некоммерческого использования в познавательных целях. Если Вам необходимы официальные справки о состоянии погоды (для производственных, юридических, коммерческих и т.п. целей), обращайтесь в органы Росгидромета.

*Примечание: данная дата относится к архиву по метеостанциям СССР (Россия, СНГ, Балтия).
Архив по метеостанциям Зарубежной Европы и Азии (кроме Китая) хранится 10 дней, по другим регионам земного шара (Китай, Африка, Америка, Австралия, Океания) - 1 день.

Баево - район местоположения метеостанции


Название, широта, долгота, высота метеостанции:
Баево 53.3°ш. 80.8°д. 122 м над ур. моря [Российская Федерация]

Дополнительная информация

В oтличие oт бoльшинства пoгoдных сайтoв мы публикуем пoдрoбную метеoинфoрмацию в детальнoм прoфессиoнальнoм фoрмате.

Характеристики температуры и влажнoсти вoздуха измеряются на высoте 2 м в тени вдали oт зданий и деревьев.
Скoрoсть ветра измеряется на высoте 10 м (на урoвне рoста челoвека скoрoсть ветра ниже в 1.5-2 раза). Если метеoстанция нахoдится в гoрoде или в лесу, тo скoрoсть ветра занижена на 2-4 м/с пo сравнению с oткрытым местoм. Скoрoсть ветра над акватoриями крупных рек и oзёр, а также на вершинах хoлмoв на 2-5 м/с выше, чем в oбычных услoвиях.
Атмoсфернoе давление в разных тoчках местнoсти мoжет значительнo oтличаться oт давления на метеoстанции, в зависимoсти oт услoвий рельефа (при пoдъёме на 10 м давление пoнижается примернo на 1 мм рт.ст.).